Track ORBCOMM FM 29 now! 10-day predictions ORBCOMM FM 29 is classified as:
1 33062U 08031C 23082.56809016 .00003505 00000-0 54719-3 0 9998 2 33062 48.4394 239.3556 0006645 134.9028 343.4159 14.74849702793395